Regional Weather Roundup
Issued by NWS Cleveland, OH

Home | Current Version | Previous Version | Text Only | Print | Product List | Glossary Off
Versions: 1 2 3 4 5 6 7 8 9 10 11 12 13 14 15 16 17 18 19 20 21 22 23 24 25 26 27 28 29 30 31 32 33 34 35 36 37 38 39 40 41 42 43 44 45 46 47 48 49 50

000
ASUS41 KCLE 251510
RWRCLE
OHIO REGIONAL WEATHER ROUNDUP
NATIONAL WEATHER SERVICE CLEVELAND, OH
1000 AM EST SUN JAN 25 2015

NOTE: "FAIR" INDICATES FEW OR NO CLOUDS BELOW 12,000 FEET WITH NO
SIGNIFICANT WEATHER AND/OR OBSTRUCTIONS TO VISIBILITY.

OHZ001>008-015>018-024>027-034-035-043-044-251600-
   NORTHWEST OHIO

CITY           SKY/WX    TMP DP  RH WIND       PRES   REMARKS
DEFIANCE       CLOUDY    31  27  85 NE14G21   29.80R WCI  21
FINDLAY        CLOUDY    31  28  89 NE15G28   29.79R WCI  20
TOLEDO EXPRESS LGT SNOW  26  23  88 E16       29.84R FOG     WCI  14
TOLEDO EXEC    MIX PCPN  26  21  81 NE10G21   29.87R WCI  16
LIMA           CLOUDY    36  31  82 E5        29.75R HAZE
$$

OHZ009>014-019>023-028>033-038-089-251600-
   NORTHEAST OHIO

CITY           SKY/WX    TMP DP  RH WIND       PRES   REMARKS
CLE-HOPKINS    CLOUDY    27  24  89 NE20      29.86R WCI  13
CLE-LAKEFRONT  FLURRIES  26  23  88 NE21G30   29.84R WCI  12
CUY CO. ARPT   LGT SNOW  27  25  93 NE16      29.83R WCI  14
LORAIN-ELYRIA  FLURRIES  27  24  89 NE20      29.83R WCI  13
ASHTABULA      FLURRIES  25  21  85 NE9G16    29.85R WCI  15
AKRON-CANTON   FOG       34  31  88 NE3       29.77R VSB 1
WOOSTER        FOG       33  32  96 N5        29.79R VSB 1   WCI  29
MANSFIELD      CLOUDY    34  31  88 N8        29.77R FOG     WCI  27
YOUNGSTOWN     LGT SNOW  28  25  88 N10       29.79R FOG     WCI  19
$$

OHZ042-051>053-060>062-070>072-077>081-251600-
  SOUTHWEST OHIO

CITY           SKY/WX    TMP DP  RH WIND       PRES   REMARKS
CINC-COVINGTON CLOUDY    39  31  72 S7        29.72S
CINC-LUNKEN    LGT RAIN  36  32  85 CALM      29.75R
HAMILTON       LGT RAIN  38  32  79 CALM      29.75R
DAYTON         LGT RAIN  36  32  85 CALM      29.74R FOG
WRIGHT-PAT AFB DRIZZLE   36  31  84 SE1       29.74R
DAYTON GENERAL CLOUDY    37  31  78 S8        29.73R
WILMINGTON     CLOUDY    36  30  79 S7        29.74R
$$

OHZ036-037-039>041-045>050-054>059-063>069-073>076-082>088-251600-
  CENTRAL AND SOUTHEAST OHIO

CITY           SKY/WX    TMP DP  RH WIND       PRES   REMARKS
COLUMBUS       CLOUDY    36  30  79 S3        29.77R
OSU AIRPORT    CLOUDY    35  30  82 SE5       29.76R HAZE
BOLTON FIELD   CLOUDY    34  30  86 CALM      29.77R FOG
RICKENBACK AFB CLOUDY    35  31  86 SE3       29.76F
NEWARK         PTSUNNY   36  31  82 S3        29.78R HAZE
MARION         CLOUDY    35  30  82 SE5       29.78R HAZE
LANCASTER      CLOUDY    36  31  82 SE5       29.77S HAZE
ZANESVILLE     CLOUDY    33  30  88 S3        29.78S FOG
NEW PHILLY     CLOUDY    35  31  85 CALM      29.80R FOG
$$



USA.gov is the U.S. government's official web portal to all federal, state and local government web resources and services.